Time,TemperatureF,DewpointF,PressureIn,WindDirection,WindDirectionDegrees,WindSpeedMPH,WindSpeedGustMPH,Humidity,HourlyPrecipIn,Conditions,Clouds,dailyrainin,SoftwareType,DateUTC
2013-04-08 00:11:00,56.1,49.7,29.86,WNW,292,0.0,-999.0,79,-99.99,,,0.00,Acu-Link.com,2013-04-08 04:11:00,
2013-04-08 00:26:00,55.8,48.7,29.85,NNW,337,0.0,-999.0,77,-99.99,,,0.00,Acu-Link.com,2013-04-08 04:26:00,
2013-04-08 00:42:00,55.4,48.7,29.85,ESE,112,0.0,-999.0,78,-99.99,,,0.00,Acu-Link.com,2013-04-08 04:42:00,
2013-04-08 00:57:00,54.9,49.8,29.85,ESE,112,0.0,-999.0,83,-99.99,,,0.00,Acu-Link.com,2013-04-08 04:57:00,
2013-04-08 01:12:00,54.7,49.0,29.85,WSW,247,0.0,-999.0,81,-99.99,,,0.00,Acu-Link.com,2013-04-08 05:12:00,
2013-04-08 01:28:00,55.4,49.0,29.84,ENE,67,0.0,-999.0,79,-99.99,,,0.00,Acu-Link.com,2013-04-08 05:28:00,
2013-04-08 01:43:00,55.2,50.5,29.84,East,90,0.0,-999.0,84,-99.99,,,0.00,Acu-Link.com,2013-04-08 05:43:00,
2013-04-08 01:58:00,54.9,49.8,29.85,NW,315,0.0,-999.0,83,-99.99,,,0.00,Acu-Link.com,2013-04-08 05:58:00,
2013-04-08 02:29:00,53.6,47.6,29.85,SSE,157,0.0,-999.0,80,-99.99,,,0.00,Acu-Link.com,2013-04-08 06:29:00,
2013-04-08 02:44:00,52.9,47.9,29.85,WNW,292,0.0,-999.0,83,-99.99,,,0.00,Acu-Link.com,2013-04-08 06:44:00,
2013-04-08 03:15:00,53.2,48.5,29.84,ESE,112,0.0,-999.0,84,-99.99,,,0.00,Acu-Link.com,2013-04-08 07:15:00,
2013-04-08 03:30:00,52.5,47.8,29.84,West,270,0.0,-999.0,84,-99.99,,,0.00,Acu-Link.com,2013-04-08 07:30:00,
2013-04-08 03:45:00,52.3,48.2,29.84,WNW,292,1.7,-999.0,86,-99.99,,,0.00,Acu-Link.com,2013-04-08 07:45:00,
2013-04-08 04:01:00,52.3,48.2,29.84,SSE,157,0.0,-999.0,86,-99.99,,,0.00,Acu-Link.com,2013-04-08 08:01:00,
2013-04-08 04:16:00,52.2,48.1,29.84,West,270,0.0,-999.0,86,-99.99,,,0.00,Acu-Link.com,2013-04-08 08:16:00,
2013-04-08 04:47:00,52.0,48.3,29.85,NW,315,0.0,-999.0,87,-99.99,,,0.00,Acu-Link.com,2013-04-08 08:47:00,
2013-04-08 05:02:00,51.8,48.4,29.84,NW,315,0.0,-999.0,88,-99.99,,,0.00,Acu-Link.com,2013-04-08 09:02:00,
2013-04-08 05:17:00,51.3,47.9,29.85,NW,315,0.0,-999.0,88,-99.99,,,0.00,Acu-Link.com,2013-04-08 09:17:00,
2013-04-08 05:32:00,51.1,47.7,29.86,NW,315,0.0,-999.0,88,-99.99,,,0.00,Acu-Link.com,2013-04-08 09:32:00,
2013-04-08 05:47:00,51.1,47.7,29.86,NW,315,0.0,-999.0,88,-99.99,,,0.00,Acu-Link.com,2013-04-08 09:47:00,
2013-04-08 06:02:00,50.9,47.8,29.86,ESE,112,0.0,-999.0,89,-99.99,,,0.00,Acu-Link.com,2013-04-08 10:02:00,
2013-04-08 06:17:00,50.7,47.6,29.88,North,0,0.0,-999.0,89,-99.99,,,0.00,Acu-Link.com,2013-04-08 10:17:00,
2013-04-08 06:33:00,50.5,48.0,29.88,WNW,292,0.0,-999.0,91,-99.99,,,0.00,Acu-Link.com,2013-04-08 10:33:00,
2013-04-08 06:48:00,50.5,48.0,29.88,WNW,292,0.0,-999.0,91,-99.99,,,0.00,Acu-Link.com,2013-04-08 10:48:00,
2013-04-08 07:19:00,50.0,47.5,29.90,WNW,292,1.1,-999.0,91,-99.99,,,0.00,Acu-Link.com,2013-04-08 11:19:00,
2013-04-08 07:34:00,50.0,47.5,29.91,WNW,292,1.1,-999.0,91,-99.99,,,0.00,Acu-Link.com,2013-04-08 11:34:00,
2013-04-08 07:49:00,50.5,48.0,29.91,WSW,247,0.0,-999.0,91,-99.99,,,0.00,Acu-Link.com,2013-04-08 11:49:00,
2013-04-08 08:05:00,51.3,48.8,29.91,SE,135,0.0,-999.0,91,-99.99,,,0.00,Acu-Link.com,2013-04-08 12:05:00,
2013-04-08 08:20:00,53.8,50.9,29.91,ESE,112,0.0,-999.0,90,-99.99,,,0.00,Acu-Link.com,2013-04-08 12:20:00,
2013-04-08 08:35:00,55.6,51.2,29.91,ESE,112,0.0,-999.0,85,-99.99,,,0.00,Acu-Link.com,2013-04-08 12:35:00,
2013-04-08 08:50:00,57.6,51.8,29.91,ENE,67,0.0,-999.0,81,-99.99,,,0.00,Acu-Link.com,2013-04-08 12:50:00,
2013-04-08 09:05:00,61.3,54.0,29.91,ESE,112,0.0,-999.0,77,-99.99,,,0.00,Acu-Link.com,2013-04-08 13:05:00,
2013-04-08 09:36:00,65.8,55.3,29.92,SW,225,1.7,-999.0,69,-99.99,,,0.00,Acu-Link.com,2013-04-08 13:36:00,
2013-04-08 10:07:00,68.4,56.6,29.91,SE,135,2.2,-999.0,66,-99.99,,,0.00,Acu-Link.com,2013-04-08 14:07:00,
2013-04-08 10:22:00,69.8,57.9,29.91,SSE,157,3.2,-999.0,66,-99.99,,,0.00,Acu-Link.com,2013-04-08 14:22:00,
2013-04-08 10:37:00,72.0,58.7,29.92,SSE,157,2.7,-999.0,63,-99.99,,,0.00,Acu-Link.com,2013-04-08 14:37:00,
2013-04-08 10:53:00,72.5,58.7,29.91,SE,135,4.2,-999.0,62,-99.99,,,0.00,Acu-Link.com,2013-04-08 14:53:00,
2013-04-08 11:08:00,73.6,58.8,29.91,SSE,157,3.2,-999.0,60,-99.99,,,0.00,Acu-Link.com,2013-04-08 15:08:00,
2013-04-08 11:23:00,75.0,58.7,29.91,SSE,157,3.2,-999.0,57,-99.99,,,0.00,Acu-Link.com,2013-04-08 15:23:00,
2013-04-08 11:38:00,74.7,58.4,29.92,South,180,3.7,-999.0,57,-99.99,,,0.00,Acu-Link.com,2013-04-08 15:38:00,
2013-04-08 11:53:00,73.8,58.1,29.92,South,180,2.7,-999.0,58,-99.99,,,0.00,Acu-Link.com,2013-04-08 15:53:00,
2013-04-08 12:24:00,74.1,56.9,29.91,South,180,4.2,-999.0,55,-99.99,,,0.00,Acu-Link.com,2013-04-08 16:24:00,
2013-04-08 12:39:00,72.5,56.4,29.91,South,180,3.2,-999.0,57,-99.99,,,0.00,Acu-Link.com,2013-04-08 16:39:00,
2013-04-08 13:09:00,73.2,57.0,29.90,SSW,202,4.2,-999.0,57,-99.99,,,0.00,Acu-Link.com,2013-04-08 17:09:00,
2013-04-08 13:25:00,74.8,57.0,29.89,South,180,4.2,-999.0,54,-99.99,,,0.00,Acu-Link.com,2013-04-08 17:25:00,
2013-04-08 13:55:00,77.2,57.7,29.88,SSW,202,2.2,-999.0,51,-99.99,,,0.00,Acu-Link.com,2013-04-08 17:55:00,
2013-04-08 14:10:00,74.5,56.7,29.88,ESE,112,5.8,-999.0,54,-99.99,,,0.00,Acu-Link.com,2013-04-08 18:10:00,
2013-04-08 14:26:00,76.1,58.2,29.87,WSW,247,4.7,-999.0,54,-99.99,,,0.00,Acu-Link.com,2013-04-08 18:26:00,
2013-04-08 14:56:00,74.8,56.0,29.86,SE,135,2.7,-999.0,52,-99.99,,,0.00,Acu-Link.com,2013-04-08 18:56:00,
2013-04-08 15:12:00,77.0,56.9,29.86,SSW,202,3.2,-999.0,50,-99.99,,,0.00,Acu-Link.com,2013-04-08 19:12:00,
2013-04-08 15:27:00,75.9,54.8,29.86,SW,225,4.2,-999.0,48,-99.99,,,0.00,Acu-Link.com,2013-04-08 19:27:00,
2013-04-08 15:42:00,75.0,55.6,29.85,SSW,202,2.7,-999.0,51,-99.99,,,0.00,Acu-Link.com,2013-04-08 19:42:00,
2013-04-08 15:57:00,74.5,55.7,29.84,SSW,202,2.7,-999.0,52,-99.99,,,0.00,Acu-Link.com,2013-04-08 19:57:00,
2013-04-08 16:13:00,75.0,55.6,29.84,SSW,202,3.2,-999.0,51,-99.99,,,0.00,Acu-Link.com,2013-04-08 20:13:00,
2013-04-08 16:28:00,75.9,55.9,29.84,West,270,3.2,-999.0,50,-99.99,,,0.00,Acu-Link.com,2013-04-08 20:28:00,
2013-04-08 16:43:00,76.3,56.8,29.84,SSW,202,2.7,-999.0,51,-99.99,,,0.00,Acu-Link.com,2013-04-08 20:43:00,
2013-04-08 16:59:00,76.3,55.7,29.83,SSW,202,7.8,-999.0,49,-99.99,,,0.00,Acu-Link.com,2013-04-08 20:59:00,
2013-04-08 17:14:00,77.9,56.6,29.83,East,90,2.2,-999.0,48,-99.99,,,0.00,Acu-Link.com,2013-04-08 21:14:00,
2013-04-08 17:29:00,78.4,56.5,29.83,East,90,3.7,-999.0,47,-99.99,,,0.00,Acu-Link.com,2013-04-08 21:29:00,
2013-04-08 17:44:00,77.9,56.0,29.82,ESE,112,2.2,-999.0,47,-99.99,,,0.00,Acu-Link.com,2013-04-08 21:44:00,
2013-04-08 18:00:00,77.5,56.2,29.82,ESE,112,2.7,-999.0,48,-99.99,,,0.00,Acu-Link.com,2013-04-08 22:00:00,
2013-04-08 18:15:00,77.7,55.8,29.82,South,180,4.2,-999.0,47,-99.99,,,0.00,Acu-Link.com,2013-04-08 22:15:00,
2013-04-08 18:30:00,77.5,55.7,29.82,NE,45,3.7,-999.0,47,-99.99,,,0.00,Acu-Link.com,2013-04-08 22:30:00,
2013-04-08 18:45:00,76.6,54.8,29.82,West,270,3.2,-999.0,47,-99.99,,,0.00,Acu-Link.com,2013-04-08 22:45:00,
2013-04-08 19:16:00,75.0,54.5,29.82,West,270,2.7,-999.0,49,-99.99,,,0.00,Acu-Link.com,2013-04-08 23:16:00,
2013-04-08 19:31:00,73.6,54.9,29.82,South,180,4.7,-999.0,52,-99.99,,,0.00,Acu-Link.com,2013-04-08 23:31:00,
2013-04-08 19:47:00,72.5,54.4,29.81,NW,315,0.0,-999.0,53,-99.99,,,0.00,Acu-Link.com,2013-04-08 23:47:00,
2013-04-08 20:02:00,71.2,54.2,29.81,SW,225,0.0,-999.0,55,-99.99,,,0.00,Acu-Link.com,2013-04-09 00:02:00,
2013-04-08 20:17:00,70.2,53.8,29.81,SW,225,0.0,-999.0,56,-99.99,,,0.00,Acu-Link.com,2013-04-09 00:17:00,
2013-04-08 20:32:00,69.1,53.7,29.82,NW,315,0.0,-999.0,58,-99.99,,,0.00,Acu-Link.com,2013-04-09 00:32:00,
2013-04-08 20:48:00,67.8,53.4,29.82,West,270,0.0,-999.0,60,-99.99,,,0.00,Acu-Link.com,2013-04-09 00:48:00,
2013-04-08 21:03:00,66.9,53.4,29.82,West,270,0.0,-999.0,62,-99.99,,,0.00,Acu-Link.com,2013-04-09 01:03:00,
2013-04-08 21:18:00,66.0,53.0,29.83,West,270,0.0,-999.0,63,-99.99,,,0.00,Acu-Link.com,2013-04-09 01:18:00,
2013-04-08 21:33:00,65.5,53.4,29.83,West,270,0.0,-999.0,65,-99.99,,,0.00,Acu-Link.com,2013-04-09 01:33:00,
2013-04-08 21:49:00,65.7,53.6,29.83,West,270,0.0,-999.0,65,-99.99,,,0.00,Acu-Link.com,2013-04-09 01:49:00,
2013-04-08 22:19:00,65.1,53.5,29.85,East,90,0.0,-999.0,66,-99.99,,,0.00,Acu-Link.com,2013-04-09 02:19:00,
2013-04-08 22:34:00,64.9,53.3,29.85,West,270,0.0,-999.0,66,-99.99,,,0.00,Acu-Link.com,2013-04-09 02:34:00,
2013-04-08 22:49:00,64.2,53.4,29.85,West,270,0.0,-999.0,68,-99.99,,,0.00,Acu-Link.com,2013-04-09 02:49:00,
2013-04-08 23:05:00,63.7,52.9,29.85,ESE,112,0.0,-999.0,68,-99.99,,,0.00,Acu-Link.com,2013-04-09 03:05:00,
2013-04-08 23:20:00,63.1,53.2,29.85,ESE,112,0.0,-999.0,70,-99.99,,,0.00,Acu-Link.com,2013-04-09 03:20:00,
2013-04-08 23:35:00,62.8,53.6,29.86,NE,45,0.0,-999.0,72,-99.99,,,0.00,Acu-Link.com,2013-04-09 03:35:00,
2013-04-08 23:51:00,61.5,53.1,29.86,East,90,0.0,-999.0,74,-99.99,,,0.00,Acu-Link.com,2013-04-09 03:51:00,